K5HAS Weather Reports


Display with metric or nautical units.
time (UTC)temp
F
wind
direction
speed
MPH
gust
MPH
rain 1hr
in
rain 24hr
in
rain mn
in
humidity
%
barometer
mb
20260503200642 82 153 6.0 13.0 0.00 0.00 0.00 54 1018.5
20260503200144 82 90 6.0 13.0 0.00 0.00 0.00 54 1018.5
20260503195642 81 107 7.0 11.0 0.00 0.00 0.00 54 1018.8
20260503195140 81 151 6.0 15.0 0.00 0.00 0.00 54 1018.8
20260503194637 80 90 5.0 15.0 0.00 0.00 0.00 54 1018.8
20260503194127 80 131 5.0 11.0 0.00 0.00 0.00 55 1019.0
20260503193114 79 99 5.0 11.0 0.00 0.00 0.00 55 1019.0
20260503192554 79 103 4.0 10.0 0.00 0.00 0.00 55 1019.2
20260503192042 79 14 5.0 9.0 0.00 0.00 0.00 55 1019.2
20260503191532 79 66 4.0 12.0 0.00 0.00 0.00 55 1019.2
20260503191020 79 101 4.0 12.0 0.00 0.00 0.00 56 1019.4
20260503190521 79 103 6.0 12.0 0.00 0.00 0.00 56 1019.4
20260503190024 78 70 6.0 12.0 0.00 0.00 0.00 56 1019.4
20260503185522 79 101 5.0 10.0 0.00 0.00 0.00 57 1019.7
20260503185022 79 85 4.0 10.0 0.00 0.00 0.00 57 1019.7
20260503184518 79 72 4.0 10.0 0.00 0.00 0.00 57 1019.7
20260503184019 78 123 4.0 10.0 0.00 0.00 0.00 58 1019.8
20260503183519 78 55 5.0 10.0 0.00 0.00 0.00 58 1019.8
20260503183020 78 53 5.0 10.0 0.00 0.00 0.00 59 1019.8
20260503182519 78 77 5.0 11.0 0.00 0.00 0.00 59 1020.2
20260503182020 78 112 5.0 11.0 0.00 0.00 0.00 59 1020.2
20260503181520 78 103 6.0 14.0 0.00 0.00 0.00 60 1020.2
20260503181022 78 124 6.0 14.0 0.00 0.00 0.00 60 1020.2
20260503180734 78 77 5.0 12.0 0.00 0.00 0.00 61 1020.2
20260503180005 78 45 6.0 12.0 0.00 0.00 0.00 61 1020.2
20260503175504 78 90 6.0 12.0 0.00 0.00 0.00 61 1020.5
20260503174946 78 90 5.0 11.0 0.00 0.00 0.00 62 1020.5
20260503174659 78 125 3.0 10.0 0.00 0.00 0.00 63 1020.8
20260503173935 78 105 4.0 7.0 0.00 0.00 0.00 64 1020.8
20260503173430 78 95 5.0 9.0 0.00 0.00 0.00 64 1020.8
20260503172933 78 90 5.0 10.0 0.00 0.00 0.00 65 1021.1
20260503172658 77 90 5.0 10.0 0.00 0.00 0.00 65 1021.1
20260503171931 77 159 5.0 10.0 0.00 0.00 0.00 66 1021.1
20260503171659 77 123 5.0 10.0 0.00 0.00 0.00 66 1021.2
20260503170930 77 151 5.0 9.0 0.00 0.00 0.00 67 1021.2
20260503151010 71 104 3.0 6.0 0.00 0.00 0.00 82 1021.0
20260503150509 71 117 3.0 5.0 0.00 0.00 0.00 82 1021.0
20260503130928 60 11 3.0 4.0 0.00 0.00 0.00 84 1020.3
20260503130428 60 7 3.0 5.0 0.00 0.00 0.00 84 1020.3
20260503110809 57 43 2.0 3.0 0.00 0.00 0.00 81 1019.3
20260503110309 57 43 2.0 3.0 0.00 0.00 0.00 81 1019.3
20260503100126 58 42 2.0 4.0 0.00 0.00 0.00 80 1019.2
20260503090109 59 26 2.0 3.0 0.00 0.00 0.00 79 1018.9
20260503081555 60 26 2.0 3.0 0.00 0.00 0.00 78 1019.2
20260503081053 60 26 2.0 3.0 0.00 0.00 0.00 78 1019.2
20260503080541 60 26 2.0 3.0 0.00 0.00 0.00 78 1019.2
20260503072513 62 5 0.0 2.0 0.00 0.00 0.00 77 1019.2
20260503072011 62 5 1.0 3.0 0.00 0.00 0.00 77 1019.2
20260503071508 63 5 1.0 3.0 0.00 0.00 0.00 77 1019.2
20260503071007 63 5 2.0 4.0 0.00 0.00 0.00 77 1019.2
20260503070507 63 5 3.0 4.0 0.00 0.00 0.00 77 1019.2
20260503054939 64 2 3.0 4.0 0.00 0.00 0.00 75 1018.8
20260503054436 65 358 4.0 5.0 0.00 0.00 0.00 75 1018.7
20260503053935 65 357 4.0 6.0 0.00 0.00 0.00 75 1018.7
20260503053424 65 7 4.0 7.0 0.00 0.00 0.00 74 1018.7
20260503052919 65 5 5.0 8.0 0.00 0.00 0.00 75 1018.6
20260503052405 65 348 5.0 8.0 0.00 0.00 0.00 74 1018.6
20260503051854 66 349 5.0 8.0 0.00 0.00 0.00 74 1018.6
20260503050847 66 349 6.0 10.0 0.00 0.00 0.00 74 1018.7
20260503050345 65 344 7.0 10.0 0.00 0.00 0.00 74 1018.7
20260503045845 65 348 5.0 8.0 0.00 0.00 0.00 74 1018.6
20260503045344 65 338 5.0 8.0 0.00 0.00 0.00 73 1018.6
20260503044845 65 353 6.0 8.0 0.00 0.00 0.00 73 1018.6
20260503044344 65 351 5.0 8.0 0.00 0.00 0.00 73 1018.7
20260503043844 65 356 5.0 8.0 0.00 0.00 0.00 73 1018.7
20260503043342 65 347 5.0 7.0 0.00 0.00 0.00 73 1018.7
20260503042844 65 355 5.0 7.0 0.00 0.00 0.00 72 1018.7
20260503042344 65 345 5.0 6.0 0.00 0.00 0.00 72 1018.7
20260503041841 65 8 4.0 6.0 0.00 0.00 0.00 72 1018.7
20260503040834 65 4 4.0 6.0 0.00 0.00 0.00 72 1018.7
20260503035817 65 357 4.0 5.0 0.00 0.00 0.00 72 1018.7
20260503035307 65 3 4.0 5.0 0.00 0.00 0.00 71 1018.7
20260503034758 65 9 4.0 5.0 0.00 0.00 0.00 71 1018.7
20260503034252 65 357 4.0 6.0 0.00 0.00 0.00 71 1018.4
20260503033741 65 354 4.0 6.0 0.00 0.00 0.00 71 1018.4
20260503033231 65 3 4.0 6.0 0.00 0.00 0.00 70 1018.4
20260503032726 65 359 5.0 6.0 0.00 0.00 0.00 70 1018.1
20260503032220 65 3 4.0 6.0 0.00 0.00 0.00 70 1018.1
20260503031717 65 3 4.0 5.0 0.00 0.00 0.00 70 1018.1
20260503031424 65 358 3.0 5.0 0.00 0.00 0.00 70 1017.9
20260503030649 65 12 3.0 5.0 0.00 0.00 0.00 69 1017.9
20260503030140 65 11 3.0 5.0 0.00 0.00 0.00 69 1017.9
20260503025636 66 18 4.0 5.0 0.00 0.00 0.00 69 1018.0
20260503025128 66 18 4.0 5.0 0.00 0.00 0.00 69 1018.0
20260503024615 66 5 4.0 6.0 0.00 0.00 0.00 68 1018.0
20260503024105 66 10 5.0 6.0 0.00 0.00 0.00 68 1017.9
20260503023559 66 18 5.0 6.0 0.00 0.00 0.00 68 1017.9
20260503023051 66 15 4.0 6.0 0.00 0.00 0.00 68 1017.9
20260503022540 66 16 5.0 6.0 0.00 0.00 0.00 67 1017.8
20260503022025 66 12 5.0 7.0 0.00 0.00 0.00 67 1017.8
20260503021512 67 10 5.0 7.0 0.00 0.00 0.00 67 1017.8
20260503021004 67 13 5.0 7.0 0.00 0.00 0.00 66 1017.8
20260503020505 67 12 4.0 7.0 0.00 0.00 0.00 66 1017.8
20260503020004 67 10 4.0 6.0 0.00 0.00 0.00 66 1017.8
20260503015505 67 9 4.0 6.0 0.00 0.00 0.00 66 1017.7
20260503015004 68 11 5.0 6.0 0.00 0.00 0.00 65 1017.7
20260503014504 68 14 4.0 6.0 0.00 0.00 0.00 65 1017.7
20260503013502 69 7 4.0 5.0 0.00 0.00 0.00 64 1017.6
20260503013000 69 16 4.0 5.0 0.00 0.00 0.00 64 1017.6
20260503012500 69 16 4.0 5.0 0.00 0.00 0.00 64 1017.6
20260503011959 69 17 4.0 5.0 0.00 0.00 0.00 63 1017.6
20260503011459 70 18 4.0 6.0 0.00 0.00 0.00 63 1017.6
20260503011237 70 19 4.0 6.0 0.00 0.00 0.00 63 1017.4
20260503010457 70 19 4.0 6.0 0.00 0.00 0.00 63 1017.4
20260503005957 70 15 4.0 6.0 0.00 0.00 0.00 62 1017.4
20260503005500 71 20 4.0 6.0 0.00 0.00 0.00 62 1017.3
20260503004954 71 3 4.0 7.0 0.00 0.00 0.00 62 1017.3
20260503004708 71 20 5.0 8.0 0.00 0.00 0.00 62 1017.1
20260503003945 71 36 6.0 8.0 0.00 0.00 0.00 62 1017.1
20260503003445 72 10 6.0 9.0 0.00 0.00 0.00 61 1017.1
20260503002925 72 21 5.0 9.0 0.00 0.00 0.00 62 1017.0
20260503002648 72 1 6.0 12.0 0.00 0.00 0.00 61 1017.0
20260503001924 72 25 7.0 12.0 0.00 0.00 0.00 61 1017.0
20260503001415 72 10 7.0 14.0 0.00 0.00 0.00 61 1016.8
20260503000914 72 16 7.0 14.0 0.00 0.00 0.00 61 1016.8
20260503000418 72 24 7.0 14.0 0.00 0.00 0.00 61 1016.8
20260502235911 72 352 7.0 14.0 0.00 0.00 0.00 61 1016.6
20260502235408 72 14 7.0 14.0 0.00 0.00 0.00 61 1016.6
20260502234907 72 11 8.0 14.0 0.00 0.00 0.00 61 1016.6
20260502234407 72 22 9.0 14.0 0.00 0.00 0.00 61 1016.5
20260502234127 73 17 8.0 15.0 0.00 0.00 0.00 61 1016.5
20260502233633 73 9 9.0 15.0 0.00 0.00 0.00 61 1016.5
20260502233134 73 2 10.0 15.0 0.00 0.00 0.00 61 1016.5
20260502232414 73 3 10.0 15.0 0.00 0.00 0.00 61 1016.5
20260502231348 74 359 8.0 15.0 0.00 0.00 0.00 61 1016.5
20260502230838 74 11 8.0 16.0 0.00 0.00 0.00 61 1016.5
20260502230332 73 341 10.0 16.0 0.00 0.00 0.00 61 1016.5
20260502225824 73 31 13.0 20.0 0.00 0.00 0.00 61 1016.6
20260502225316 73 355 13.0 20.0 0.00 0.00 0.00 61 1016.6
20260502224814 74 26 12.0 19.0 0.00 0.00 0.00 61 1016.6
20260502224305 74 44 10.0 18.0 0.00 0.00 0.00 62 1016.7
20260502223805 74 30 9.0 18.0 0.00 0.00 0.00 62 1016.7
20260502223304 74 18 10.0 17.0 0.00 0.00 0.00 62 1016.7
20260502222806 74 3 9.0 17.0 0.00 0.00 0.00 63 1016.8
20260502222305 74 14 10.0 17.0 0.00 0.00 0.00 63 1016.8
20260502221806 73 357 12.0 20.0 0.00 0.00 0.00 63 1016.8
20260502221308 73 34 12.0 20.0 0.00 0.00 0.00 63 1016.8
20260502220805 74 29 10.0 18.0 0.00 0.00 0.00 63 1016.8
20260502220305 73 19 10.0 20.0 0.00 0.00 0.00 64 1016.8
20260502215806 73 46 10.0 20.0 0.00 0.00 0.00 64 1016.9
20260502215309 74 20 10.0 19.0 0.00 0.00 0.00 64 1016.9
20260502215028 74 18 11.0 19.0 0.00 0.00 0.00 64 1016.9
20260502214257 74 30 12.0 19.0 0.00 0.00 0.00 65 1017.0
20260502213758 74 20 12.0 17.0 0.00 0.00 0.00 65 1017.0
20260502213255 73 32 13.0 21.0 0.00 0.00 0.00 65 1017.0
20260502212755 74 19 11.0 21.0 0.00 0.00 0.00 65 1017.1
20260502212256 74 23 11.0 18.0 0.00 0.00 0.00 66 1017.1
20260502211754 73 349 13.0 20.0 0.00 0.00 0.00 66 1017.1
20260502211255 73 90 13.0 20.0 0.00 0.00 0.00 66 1017.2
20260502210742 73 4 11.0 19.0 0.00 0.00 0.00 66 1017.2
20260502210244 73 357 10.0 16.0 0.00 0.00 0.00 66 1017.2
20260502205741 73 343 11.0 22.0 0.00 0.00 0.00 66 1017.4
20260502205239 73 1 11.0 22.0 0.00 0.00 0.00 66 1017.4
20260502204739 74 16 11.0 22.0 0.00 0.00 0.00 67 1017.4
20260502204248 73 23 12.0 22.0 0.00 0.00 0.00 67 1017.4
20260502203738 73 53 12.0 20.0 0.00 0.00 0.00 67 1017.4
20260502203240 73 22 13.0 22.0 0.00 0.00 0.00 67 1017.4
20260502202740 73 37 14.0 24.0 0.00 0.00 0.00 67 1017.4
20260502202240 73 340 13.0 24.0 0.00 0.00 0.00 68 1017.4
20260502201739 73 30 14.0 22.0 0.00 0.00 0.00 68 1017.4
20260502201240 73 16 14.0 22.0 0.00 0.00 0.00 68 1017.5